Time,TemperatureF,DewpointF,PressureIn,WindDirection,WindDirectionDegrees,WindSpeedMPH,WindSpeedGustMPH,Humidity,HourlyPrecipIn,Conditions,Clouds,dailyrainin,SoftwareType,DateUTC
2013-06-14 00:01:00,79.4,74.2,29.95,East,90,0.4,0.4,84,0.00,,,0.00,WUHU216HW,2013-06-14 04:01:00,
2013-06-14 00:03:00,79.2,74.0,29.95,East,90,0.0,0.4,84,0.00,,,0.00,WUHU216HW,2013-06-14 04:03:00,
2013-06-14 00:08:00,79.2,74.0,29.96,East,90,0.0,0.4,84,0.00,,,0.00,WUHU216HW,2013-06-14 04:08:00,
2013-06-14 00:13:00,79.2,74.0,29.96,East,90,0.0,0.0,84,0.00,,,0.00,WUHU216HW,2013-06-14 04:13:00,
2013-06-14 00:18:00,79.0,73.8,29.96,East,90,0.0,0.0,84,0.00,,,0.00,WUHU216HW,2013-06-14 04:18:00,
2013-06-14 00:23:00,78.8,73.6,29.96,East,90,0.0,0.0,84,0.00,,,0.00,WUHU216HW,2013-06-14 04:23:00,
2013-06-14 00:29:00,78.8,73.6,29.96,East,90,0.0,0.2,84,0.00,,,0.00,WUHU216HW,2013-06-14 04:29:00,
2013-06-14 00:34:00,78.8,73.6,29.96,East,90,0.0,0.2,84,0.00,,,0.00,WUHU216HW,2013-06-14 04:34:00,
2013-06-14 00:39:00,78.7,73.4,29.96,East,90,0.2,0.2,84,0.00,,,0.00,WUHU216HW,2013-06-14 04:39:00,
2013-06-14 00:44:00,78.7,73.1,29.95,East,90,0.0,0.4,83,0.00,,,0.00,WUHU216HW,2013-06-14 04:44:00,
2013-06-14 00:45:00,78.7,73.1,29.95,East,90,0.0,0.0,83,0.00,,,0.00,WUHU216HW,2013-06-14 04:45:00,
2013-06-14 00:49:00,78.7,73.1,29.95,East,90,0.0,0.4,83,0.00,,,0.00,WUHU216HW,2013-06-14 04:49:00,
2013-06-14 00:54:00,78.7,73.1,29.95,East,90,0.0,0.0,83,0.00,,,0.00,WUHU216HW,2013-06-14 04:54:00,
2013-06-14 01:00:00,78.7,73.4,29.95,East,90,0.0,0.0,84,0.00,,,0.00,WUHU216HW,2013-06-14 05:00:00,
2013-06-14 01:05:00,78.5,73.3,29.95,East,90,0.4,0.4,84,0.00,,,0.00,WUHU216HW,2013-06-14 05:05:00,
2013-06-14 01:10:00,78.5,73.3,29.95,East,90,0.0,0.4,84,0.00,,,0.00,WUHU216HW,2013-06-14 05:10:00,
2013-06-14 01:15:00,78.5,73.3,29.94,East,90,0.7,0.7,84,0.00,,,0.00,WUHU216HW,2013-06-14 05:15:00,
2013-06-14 01:20:00,78.3,73.1,29.95,East,90,0.0,0.7,84,0.00,,,0.00,WUHU216HW,2013-06-14 05:20:00,
2013-06-14 01:26:00,78.3,73.4,29.94,East,90,0.0,0.4,85,0.00,,,0.00,WUHU216HW,2013-06-14 05:26:00,
2013-06-14 01:31:00,78.1,73.3,29.94,East,90,0.0,0.0,85,0.00,,,0.00,WUHU216HW,2013-06-14 05:31:00,
2013-06-14 01:36:00,78.1,73.3,29.94,East,90,0.0,0.0,85,0.00,,,0.00,WUHU216HW,2013-06-14 05:36:00,
2013-06-14 01:41:00,78.1,73.3,29.94,East,90,0.0,0.0,85,0.00,,,0.00,WUHU216HW,2013-06-14 05:41:00,
2013-06-14 01:46:00,78.1,73.3,29.94,East,90,0.0,0.0,85,0.00,,,0.00,WUHU216HW,2013-06-14 05:46:00,
2013-06-14 01:51:00,78.1,73.3,29.94,East,90,0.0,0.0,85,0.00,,,0.00,WUHU216HW,2013-06-14 05:51:00,
2013-06-14 01:56:00,78.1,73.3,29.94,East,90,0.0,0.0,85,0.00,,,0.00,WUHU216HW,2013-06-14 05:56:00,
2013-06-14 02:01:00,77.9,73.1,29.94,East,90,0.0,0.0,85,0.00,,,0.00,WUHU216HW,2013-06-14 06:01:00,
2013-06-14 02:06:00,77.9,73.1,29.94,East,90,0.0,0.0,85,0.00,,,0.00,WUHU216HW,2013-06-14 06:06:00,
2013-06-14 02:12:00,77.9,73.1,29.93,East,90,0.0,0.0,85,0.00,,,0.00,WUHU216HW,2013-06-14 06:12:00,
2013-06-14 02:17:00,77.9,73.1,29.94,East,90,0.0,0.0,85,0.00,,,0.00,WUHU216HW,2013-06-14 06:17:00,
2013-06-14 02:22:00,77.9,73.1,29.93,East,90,0.0,0.0,85,0.00,,,0.00,WUHU216HW,2013-06-14 06:22:00,
2013-06-14 02:27:00,77.9,73.1,29.93,East,90,0.0,0.0,85,0.00,,,0.00,WUHU216HW,2013-06-14 06:27:00,
2013-06-14 02:32:00,77.8,72.9,29.93,East,90,0.0,0.0,85,0.00,,,0.00,WUHU216HW,2013-06-14 06:32:00,
2013-06-14 02:37:00,77.8,72.9,29.93,East,90,0.0,0.0,85,0.00,,,0.00,WUHU216HW,2013-06-14 06:37:00,
2013-06-14 02:42:00,77.8,72.9,29.93,East,90,0.0,0.0,85,0.00,,,0.00,WUHU216HW,2013-06-14 06:42:00,
2013-06-14 02:48:00,77.8,72.9,29.93,East,90,0.0,0.0,85,0.00,,,0.00,WUHU216HW,2013-06-14 06:48:00,
2013-06-14 02:53:00,77.8,72.9,29.93,East,90,0.0,0.0,85,0.00,,,0.00,WUHU216HW,2013-06-14 06:53:00,
2013-06-14 02:58:00,77.6,72.7,29.93,East,90,0.0,0.0,85,0.00,,,0.00,WUHU216HW,2013-06-14 06:58:00,
2013-06-14 03:03:00,77.6,72.7,29.92,East,90,0.0,0.0,85,0.00,,,0.00,WUHU216HW,2013-06-14 07:03:00,
2013-06-14 03:08:00,77.4,72.5,29.92,East,90,0.2,0.2,85,0.00,,,0.00,WUHU216HW,2013-06-14 07:08:00,
2013-06-14 03:13:00,77.4,72.5,29.92,East,90,0.0,0.2,85,0.00,,,0.00,WUHU216HW,2013-06-14 07:13:00,
2013-06-14 03:18:00,77.4,72.5,29.92,East,90,0.0,0.0,85,0.00,,,0.00,WUHU216HW,2013-06-14 07:18:00,
2013-06-14 03:23:00,77.4,72.5,29.92,East,90,0.0,0.0,85,0.00,,,0.00,WUHU216HW,2013-06-14 07:23:00,
2013-06-14 03:28:00,77.4,72.5,29.92,East,90,0.0,0.0,85,0.00,,,0.00,WUHU216HW,2013-06-14 07:28:00,
2013-06-14 03:33:00,77.4,72.5,29.92,East,90,0.0,0.0,85,0.00,,,0.00,WUHU216HW,2013-06-14 07:33:00,
2013-06-14 03:38:00,77.2,72.4,29.92,East,90,0.4,0.4,85,0.00,,,0.00,WUHU216HW,2013-06-14 07:38:00,
2013-06-14 03:45:00,77.2,72.4,29.91,SE,135,0.4,0.4,85,0.00,,,0.00,WUHU216HW,2013-06-14 07:45:00,
2013-06-14 03:50:00,77.2,72.4,29.91,SE,135,0.0,0.4,85,0.00,,,0.00,WUHU216HW,2013-06-14 07:50:00,
2013-06-14 03:55:00,77.0,72.2,29.91,SE,135,0.0,0.2,85,0.00,,,0.00,WUHU216HW,2013-06-14 07:55:00,
2013-06-14 04:00:00,77.2,72.4,29.91,SE,135,0.0,0.2,85,0.00,,,0.00,WUHU216HW,2013-06-14 08:00:00,
2013-06-14 04:05:00,77.2,72.4,29.91,SE,135,0.0,0.0,85,0.00,,,0.00,WUHU216HW,2013-06-14 08:05:00,
2013-06-14 04:12:00,77.0,72.2,29.91,SE,135,0.0,0.0,85,0.00,,,0.00,WUHU216HW,2013-06-14 08:12:00,
2013-06-14 04:17:00,77.0,72.2,29.90,SE,135,0.0,0.4,85,0.00,,,0.00,WUHU216HW,2013-06-14 08:17:00,
2013-06-14 04:22:00,77.0,72.2,29.90,SE,135,0.0,0.4,85,0.00,,,0.00,WUHU216HW,2013-06-14 08:22:00,
2013-06-14 04:27:00,77.0,72.2,29.90,SE,135,0.0,0.0,85,0.00,,,0.00,WUHU216HW,2013-06-14 08:27:00,
2013-06-14 04:32:00,76.9,72.0,29.90,SE,135,0.0,0.0,85,0.00,,,0.00,WUHU216HW,2013-06-14 08:32:00,
2013-06-14 04:37:00,76.9,72.0,29.89,SE,135,0.0,0.2,85,0.00,,,0.00,WUHU216HW,2013-06-14 08:37:00,
2013-06-14 04:42:00,76.9,72.0,29.89,SE,135,0.0,0.2,85,0.00,,,0.00,WUHU216HW,2013-06-14 08:42:00,
2013-06-14 04:47:00,76.7,71.8,29.89,SE,135,0.0,0.4,85,0.00,,,0.00,WUHU216HW,2013-06-14 08:47:00,
2013-06-14 04:53:00,76.9,72.0,29.89,SE,135,0.0,0.2,85,0.00,,,0.00,WUHU216HW,2013-06-14 08:53:00,
2013-06-14 04:58:00,76.9,72.0,29.89,SE,135,0.0,0.0,85,0.00,,,0.00,WUHU216HW,2013-06-14 08:58:00,
2013-06-14 05:03:00,76.7,71.8,29.89,SE,135,0.0,0.0,85,0.00,,,0.00,WUHU216HW,2013-06-14 09:03:00,
2013-06-14 05:08:00,76.7,71.8,29.89,SE,135,0.0,0.0,85,0.00,,,0.00,WUHU216HW,2013-06-14 09:08:00,
2013-06-14 05:13:00,76.7,71.8,29.89,SE,135,0.0,0.0,85,0.00,,,0.00,WUHU216HW,2013-06-14 09:13:00,
2013-06-14 05:18:00,76.7,72.2,29.89,SE,135,0.0,0.0,86,0.00,,,0.00,WUHU216HW,2013-06-14 09:18:00,
2013-06-14 05:23:00,76.5,71.6,29.89,SE,135,0.4,0.4,85,0.00,,,0.00,WUHU216HW,2013-06-14 09:23:00,
2013-06-14 05:28:00,76.5,71.6,29.89,SE,135,0.0,0.4,85,0.00,,,0.00,WUHU216HW,2013-06-14 09:28:00,
2013-06-14 05:34:00,76.5,72.0,29.89,SE,135,0.0,0.0,86,0.00,,,0.00,WUHU216HW,2013-06-14 09:34:00,
2013-06-14 05:39:00,76.5,72.0,29.90,SE,135,0.0,0.0,86,0.00,,,0.00,WUHU216HW,2013-06-14 09:39:00,
2013-06-14 05:44:00,76.5,72.0,29.90,SE,135,0.0,0.0,86,0.00,,,0.00,WUHU216HW,2013-06-14 09:44:00,
2013-06-14 05:49:00,76.5,72.0,29.90,SE,135,0.2,0.2,86,0.00,,,0.00,WUHU216HW,2013-06-14 09:49:00,
2013-06-14 05:54:00,76.3,71.8,29.90,SE,135,0.7,0.7,86,0.00,,,0.00,WUHU216HW,2013-06-14 09:54:00,
2013-06-14 05:59:00,76.3,71.8,29.90,SE,135,0.0,0.7,86,0.00,,,0.00,WUHU216HW,2013-06-14 09:59:00,
2013-06-14 06:04:00,76.3,71.8,29.90,SE,135,0.0,0.4,86,0.00,,,0.00,WUHU216HW,2013-06-14 10:04:00,
2013-06-14 06:09:00,76.3,71.8,29.91,SE,135,0.0,0.0,86,0.00,,,0.00,WUHU216HW,2013-06-14 10:09:00,
2013-06-14 06:14:00,76.3,71.8,29.91,SE,135,0.0,0.0,86,0.00,,,0.00,WUHU216HW,2013-06-14 10:14:00,
2013-06-14 06:20:00,76.3,71.8,29.91,SE,135,0.2,0.2,86,0.00,,,0.00,WUHU216HW,2013-06-14 10:20:00,
2013-06-14 06:25:00,76.1,71.6,29.91,SE,135,0.0,0.2,86,0.00,,,0.00,WUHU216HW,2013-06-14 10:25:00,
2013-06-14 06:30:00,76.1,71.6,29.90,ESE,113,0.7,0.7,86,0.00,,,0.00,WUHU216HW,2013-06-14 10:30:00,
2013-06-14 06:35:00,76.3,71.8,29.90,ESE,113,0.2,0.7,86,0.00,,,0.00,WUHU216HW,2013-06-14 10:35:00,
2013-06-14 06:40:00,76.1,71.6,29.90,ESE,113,0.0,0.4,86,0.00,,,0.00,WUHU216HW,2013-06-14 10:40:00,
2013-06-14 06:45:00,76.1,71.6,29.91,ESE,113,0.0,0.4,86,0.00,,,0.00,WUHU216HW,2013-06-14 10:45:00,
2013-06-14 06:50:00,76.1,71.6,29.91,ESE,113,0.0,0.0,86,0.00,,,0.00,WUHU216HW,2013-06-14 10:50:00,
2013-06-14 06:55:00,76.1,71.6,29.91,ESE,113,0.0,0.0,86,0.00,,,0.00,WUHU216HW,2013-06-14 10:55:00,
2013-06-14 07:00:00,76.1,71.6,29.91,ESE,113,0.4,0.4,86,0.00,,,0.00,WUHU216HW,2013-06-14 11:00:00,
2013-06-14 07:05:00,76.0,71.5,29.90,ESE,113,0.4,0.4,86,0.00,,,0.00,WUHU216HW,2013-06-14 11:05:00,
2013-06-14 07:10:00,76.0,71.5,29.90,ESE,113,0.2,0.4,86,0.00,,,0.00,WUHU216HW,2013-06-14 11:10:00,
2013-06-14 07:16:00,76.0,71.5,29.89,ESE,113,0.0,0.4,86,0.00,,,0.00,WUHU216HW,2013-06-14 11:16:00,
2013-06-14 07:21:00,76.1,71.6,29.90,ESE,113,0.0,0.4,86,0.00,,,0.00,WUHU216HW,2013-06-14 11:21:00,
2013-06-14 07:26:00,76.1,71.6,29.90,ESE,113,0.0,0.0,86,0.00,,,0.00,WUHU216HW,2013-06-14 11:26:00,
2013-06-14 07:31:00,76.1,71.6,29.90,ESE,113,0.2,0.2,86,0.00,,,0.00,WUHU216HW,2013-06-14 11:31:00,
2013-06-14 07:36:00,76.3,71.8,29.90,ESE,113,0.0,0.2,86,0.00,,,0.00,WUHU216HW,2013-06-14 11:36:00,
2013-06-14 07:41:00,76.5,72.0,29.91,ESE,113,0.0,0.0,86,0.00,,,0.00,WUHU216HW,2013-06-14 11:41:00,
2013-06-14 07:46:00,76.5,72.0,29.91,ESE,113,0.0,0.0,86,0.00,,,0.00,WUHU216HW,2013-06-14 11:46:00,
2013-06-14 07:51:00,76.5,72.0,29.90,ESE,113,0.0,0.0,86,0.00,,,0.00,WUHU216HW,2013-06-14 11:51:00,
2013-06-14 07:56:00,76.5,72.0,29.91,NNW,338,0.0,0.7,86,0.00,,,0.00,WUHU216HW,2013-06-14 11:56:00,
2013-06-14 08:01:00,76.5,72.0,29.91,SW,225,0.0,0.7,86,0.00,,,0.00,WUHU216HW,2013-06-14 12:01:00,
2013-06-14 08:06:00,76.5,71.6,29.91,SSW,203,1.6,1.6,85,0.00,,,0.00,WUHU216HW,2013-06-14 12:06:00,
2013-06-14 08:11:00,76.7,71.8,29.91,SW,225,0.2,2.9,85,0.00,,,0.00,WUHU216HW,2013-06-14 12:11:00,
2013-06-14 08:16:00,77.0,72.2,29.91,SW,225,0.4,2.9,85,0.00,,,0.00,WUHU216HW,2013-06-14 12:16:00,
2013-06-14 08:21:00,77.2,72.4,29.91,WNW,293,1.6,1.6,85,0.00,,,0.00,WUHU216HW,2013-06-14 12:21:00,
2013-06-14 08:27:00,77.8,72.9,29.91,WSW,248,0.7,2.2,85,0.00,,,0.00,WUHU216HW,2013-06-14 12:27:00,
2013-06-14 08:32:00,78.1,73.3,29.91,SW,225,0.4,2.2,85,0.00,,,0.00,WUHU216HW,2013-06-14 12:32:00,
2013-06-14 08:37:00,78.5,73.6,29.92,West,270,1.8,1.8,85,0.00,,,0.00,WUHU216HW,2013-06-14 12:37:00,
2013-06-14 08:42:00,78.5,73.6,29.92,North,0,1.6,1.8,85,0.00,,,0.00,WUHU216HW,2013-06-14 12:42:00,
2013-06-14 09:00:00,79.7,74.2,29.93,South,180,0.4,0.4,83,0.00,,,0.00,WUHU216HW,2013-06-14 13:00:00,
2013-06-14 09:01:00,79.7,74.2,29.93,South,180,0.4,0.4,83,0.00,,,0.00,WUHU216HW,2013-06-14 13:01:00,
2013-06-14 09:06:00,79.7,74.2,29.93,South,180,0.4,0.4,83,0.00,,,0.00,WUHU216HW,2013-06-14 13:06:00,
2013-06-14 09:30:00,81.7,75.8,29.93,WSW,248,1.6,1.6,82,0.00,,,0.00,WUHU216HW,2013-06-14 13:30:00,
2013-06-14 09:31:00,81.7,75.8,29.93,WSW,248,1.6,1.6,82,0.00,,,0.00,WUHU216HW,2013-06-14 13:31:00,
2013-06-14 09:36:00,81.7,75.8,29.93,WSW,248,1.6,1.6,82,0.00,,,0.00,WUHU216HW,2013-06-14 13:36:00,
2013-06-14 10:01:00,83.5,76.3,29.92,WSW,248,1.1,1.1,79,0.00,,,0.00,WUHU216HW,2013-06-14 14:01:00,
2013-06-14 10:06:00,83.9,76.3,29.92,NW,315,3.1,4.0,78,0.00,,,0.00,WUHU216HW,2013-06-14 14:06:00,
2013-06-14 10:11:00,84.2,76.6,29.93,South,180,1.3,4.0,78,0.00,,,0.00,WUHU216HW,2013-06-14 14:11:00,
2013-06-14 10:16:00,84.6,76.1,29.93,WNW,293,5.1,5.1,76,0.00,,,0.00,WUHU216HW,2013-06-14 14:16:00,
2013-06-14 10:21:00,84.8,76.3,29.93,WNW,293,2.5,5.1,76,0.00,,,0.00,WUHU216HW,2013-06-14 14:21:00,
2013-06-14 10:26:00,85.1,76.7,29.93,WNW,293,5.1,5.1,76,0.00,,,0.00,WUHU216HW,2013-06-14 14:26:00,
2013-06-14 10:31:00,85.3,76.9,29.93,SW,225,0.4,5.1,76,0.00,,,0.00,WUHU216HW,2013-06-14 14:31:00,
2013-06-14 10:36:00,85.5,77.0,29.93,WSW,248,0.7,3.4,76,0.00,,,0.00,WUHU216HW,2013-06-14 14:36:00,
2013-06-14 10:41:00,85.7,76.1,29.93,SW,225,2.9,2.9,73,0.00,,,0.00,WUHU216HW,2013-06-14 14:41:00,
2013-06-14 10:47:00,86.0,76.9,29.94,South,180,1.3,2.9,74,0.00,,,0.00,WUHU216HW,2013-06-14 14:47:00,
2013-06-14 10:52:00,86.4,77.1,29.93,WSW,248,2.9,3.6,74,0.00,,,0.00,WUHU216HW,2013-06-14 14:52:00,
2013-06-14 10:57:00,86.8,77.1,29.94,SW,225,0.9,3.6,73,0.00,,,0.00,WUHU216HW,2013-06-14 14:57:00,
2013-06-14 11:02:00,87.1,77.4,29.94,SW,225,2.2,3.6,73,0.00,,,0.00,WUHU216HW,2013-06-14 15:02:00,
2013-06-14 11:07:00,87.3,77.2,29.94,NNW,338,2.2,4.0,72,0.00,,,0.00,WUHU216HW,2013-06-14 15:07:00,
2013-06-14 11:12:00,87.3,76.8,29.94,South,180,1.8,4.0,71,0.00,,,0.00,WUHU216HW,2013-06-14 15:12:00,
2013-06-14 11:17:00,87.7,77.1,29.94,SW,225,3.8,3.8,71,0.00,,,0.00,WUHU216HW,2013-06-14 15:17:00,
2013-06-14 11:22:00,87.8,77.3,29.94,WSW,248,0.4,3.8,71,0.00,,,0.00,WUHU216HW,2013-06-14 15:22:00,
2013-06-14 11:27:00,88.0,77.5,29.94,SSE,158,0.4,3.6,71,0.00,,,0.00,WUHU216HW,2013-06-14 15:27:00,
2013-06-14 11:32:00,88.4,77.9,29.94,WSW,248,3.8,3.8,71,0.00,,,0.00,WUHU216HW,2013-06-14 15:32:00,
2013-06-14 11:37:00,88.9,78.3,29.94,West,270,2.0,3.8,71,0.00,,,0.00,WUHU216HW,2013-06-14 15:37:00,
2013-06-14 11:42:00,89.3,78.7,29.94,SW,225,0.4,2.0,71,0.00,,,0.00,WUHU216HW,2013-06-14 15:42:00,
2013-06-14 11:48:00,89.6,78.2,29.94,SSW,203,1.3,2.7,69,0.00,,,0.00,WUHU216HW,2013-06-14 15:48:00,
2013-06-14 11:53:00,89.3,77.9,29.94,WNW,293,1.1,3.6,69,0.00,,,0.00,WUHU216HW,2013-06-14 15:53:00,
2013-06-14 11:58:00,89.1,78.1,29.94,WSW,248,0.7,3.6,70,0.00,,,0.00,WUHU216HW,2013-06-14 15:58:00,
2013-06-14 12:03:00,88.9,77.9,29.94,WSW,248,1.1,2.5,70,0.00,,,0.00,WUHU216HW,2013-06-14 16:03:00,
2013-06-14 12:08:00,88.9,77.9,29.94,NW,315,1.8,3.1,70,0.00,,,0.00,WUHU216HW,2013-06-14 16:08:00,
2013-06-14 12:13:00,88.7,77.8,29.95,WNW,293,1.6,3.1,70,0.00,,,0.00,WUHU216HW,2013-06-14 16:13:00,
2013-06-14 12:18:00,88.6,78.0,29.95,WSW,248,1.3,3.4,71,0.00,,,0.00,WUHU216HW,2013-06-14 16:18:00,
2013-06-14 12:23:00,88.4,78.2,29.95,West,270,0.7,3.4,72,0.00,,,0.00,WUHU216HW,2013-06-14 16:23:00,
2013-06-14 12:29:00,88.2,78.0,29.95,NW,315,1.8,2.5,72,0.00,,,0.00,WUHU216HW,2013-06-14 16:29:00,
2013-06-14 12:34:00,87.8,77.7,29.94,NW,315,4.0,4.9,72,0.00,,,0.00,WUHU216HW,2013-06-14 16:34:00,
2013-06-14 12:39:00,87.3,77.2,29.94,NNW,338,2.0,4.9,72,0.00,,,0.00,WUHU216HW,2013-06-14 16:39:00,
2013-06-14 12:44:00,86.9,76.9,29.95,WSW,248,0.7,4.3,72,0.00,,,0.00,WUHU216HW,2013-06-14 16:44:00,
2013-06-14 12:49:00,86.8,76.7,29.95,WNW,293,3.8,4.9,72,0.00,,,0.00,WUHU216HW,2013-06-14 16:49:00,
2013-06-14 12:54:00,86.8,76.7,29.95,NW,315,6.3,6.9,72,0.00,,,0.00,WUHU216HW,2013-06-14 16:54:00,
2013-06-14 12:59:00,86.6,77.0,29.95,North,0,2.2,6.9,73,0.00,,,0.00,WUHU216HW,2013-06-14 16:59:00,
2013-06-14 13:04:00,86.6,77.0,29.95,NNW,338,2.7,6.9,73,0.00,,,0.00,WUHU216HW,2013-06-14 17:04:00,
2013-06-14 13:10:00,86.9,77.3,29.94,NNE,23,1.8,7.2,73,0.00,,,0.00,WUHU216HW,2013-06-14 17:10:00,
2013-06-14 13:15:00,87.3,77.2,29.94,WNW,293,2.9,7.2,72,0.00,,,0.00,WUHU216HW,2013-06-14 17:15:00,
2013-06-14 13:20:00,87.5,76.5,29.94,NW,315,6.3,6.3,70,0.00,,,0.00,WUHU216HW,2013-06-14 17:20:00,
2013-06-14 13:25:00,87.7,76.2,29.94,SE,135,4.0,6.3,69,0.00,,,0.00,WUHU216HW,2013-06-14 17:25:00,
2013-06-14 13:30:00,87.7,76.2,29.94,West,270,2.2,6.3,69,0.00,,,0.00,WUHU216HW,2013-06-14 17:30:00,
2013-06-14 13:35:00,87.8,76.4,29.93,WSW,248,1.1,7.6,69,0.00,,,0.00,WUHU216HW,2013-06-14 17:35:00,
2013-06-14 13:40:00,88.2,77.2,29.93,West,270,0.9,7.6,70,0.00,,,0.00,WUHU216HW,2013-06-14 17:40:00,
2013-06-14 13:45:00,88.2,76.8,29.93,South,180,1.8,8.3,69,0.00,,,0.00,WUHU216HW,2013-06-14 17:45:00,
2013-06-14 13:50:00,88.2,77.2,29.93,NW,315,2.0,8.3,70,0.00,,,0.00,WUHU216HW,2013-06-14 17:50:00,
2013-06-14 13:56:00,88.4,77.0,29.92,SW,225,4.0,6.3,69,0.00,,,0.00,WUHU216HW,2013-06-14 17:56:00,
2013-06-14 14:01:00,88.9,77.1,29.92,WNW,293,4.7,6.3,68,0.00,,,0.00,WUHU216HW,2013-06-14 18:01:00,
2013-06-14 14:06:00,89.3,77.9,29.92,West,270,2.0,4.7,69,0.00,,,0.00,WUHU216HW,2013-06-14 18:06:00,
2013-06-14 14:11:00,89.3,77.0,29.91,North,0,2.0,3.4,67,0.00,,,0.00,WUHU216HW,2013-06-14 18:11:00,
2013-06-14 14:16:00,89.6,77.2,29.91,SW,225,3.4,4.0,67,0.00,,,0.00,WUHU216HW,2013-06-14 18:16:00,
2013-06-14 14:21:00,89.8,77.4,29.91,NW,315,2.5,4.0,67,0.00,,,0.00,WUHU216HW,2013-06-14 18:21:00,
2013-06-14 14:26:00,89.8,77.4,29.91,NW,315,2.9,4.0,67,0.00,,,0.00,WUHU216HW,2013-06-14 18:26:00,
2013-06-14 14:31:00,90.0,76.7,29.91,NW,315,3.4,3.4,65,0.00,,,0.00,WUHU216HW,2013-06-14 18:31:00,
2013-06-14 14:37:00,89.6,76.8,29.91,WSW,248,3.1,4.7,66,0.00,,,0.00,WUHU216HW,2013-06-14 18:37:00,
2013-06-14 14:42:00,89.8,76.5,29.91,WSW,248,0.9,4.7,65,0.00,,,0.00,WUHU216HW,2013-06-14 18:42:00,
2013-06-14 14:47:00,89.6,77.2,29.91,WNW,293,3.6,3.6,67,0.00,,,0.00,WUHU216HW,2013-06-14 18:47:00,
2013-06-14 14:52:00,89.5,76.6,29.91,WSW,248,2.5,6.9,66,0.00,,,0.00,WUHU216HW,2013-06-14 18:52:00,
2013-06-14 14:57:00,89.5,76.6,29.90,WSW,248,3.6,6.9,66,0.00,,,0.00,WUHU216HW,2013-06-14 18:57:00,
2013-06-14 15:02:00,89.6,76.3,29.90,SW,225,1.8,3.6,65,0.00,,,0.00,WUHU216HW,2013-06-14 19:02:00,
2013-06-14 15:07:00,89.8,76.5,29.90,West,270,2.5,4.5,65,0.00,,,0.00,WUHU216HW,2013-06-14 19:07:00,
2013-06-14 15:12:00,90.2,76.8,29.90,West,270,3.6,4.5,65,0.00,,,0.00,WUHU216HW,2013-06-14 19:12:00,
2013-06-14 15:17:00,90.2,76.8,29.90,SSW,203,4.0,4.7,65,0.00,,,0.00,WUHU216HW,2013-06-14 19:17:00,
2013-06-14 15:22:00,89.8,76.5,29.90,NNW,338,1.6,5.8,65,0.00,,,0.00,WUHU216HW,2013-06-14 19:22:00,
2013-06-14 15:28:00,89.3,75.5,29.90,West,270,1.1,5.8,64,0.00,,,0.00,WUHU216HW,2013-06-14 19:28:00,
2013-06-14 15:33:00,88.9,75.6,29.90,WSW,248,1.8,6.3,65,0.00,,,0.00,WUHU216HW,2013-06-14 19:33:00,
2013-06-14 15:38:00,88.7,76.0,29.90,North,0,1.8,6.3,66,0.00,,,0.00,WUHU216HW,2013-06-14 19:38:00,
2013-06-14 15:39:00,88.7,76.0,29.90,SSE,158,2.7,2.7,66,0.00,,,0.00,WUHU216HW,2013-06-14 19:39:00,
2013-06-14 15:43:00,88.7,76.0,29.90,SSE,158,2.7,3.6,66,0.00,,,0.00,WUHU216HW,2013-06-14 19:43:00,
2013-06-14 15:48:00,88.7,76.0,29.90,SSE,158,2.7,3.6,66,0.00,,,0.00,WUHU216HW,2013-06-14 19:48:00,
2013-06-14 16:00:00,88.9,76.6,29.90,North,0,1.1,1.1,67,0.00,,,0.00,WUHU216HW,2013-06-14 20:00:00,
2013-06-14 16:05:00,88.9,76.6,29.90,SSW,203,1.3,5.4,67,0.00,,,0.00,WUHU216HW,2013-06-14 20:05:00,
2013-06-14 16:11:00,88.9,77.1,29.90,SW,225,1.8,5.4,68,0.00,,,0.00,WUHU216HW,2013-06-14 20:11:00,
2013-06-14 16:16:00,88.6,76.7,29.90,WNW,293,2.2,3.4,68,0.00,,,0.00,WUHU216HW,2013-06-14 20:16:00,
2013-06-14 16:21:00,88.6,76.7,29.90,South,180,1.1,4.7,68,0.00,,,0.00,WUHU216HW,2013-06-14 20:21:00,
2013-06-14 16:26:00,88.6,77.1,29.90,SE,135,1.8,4.7,69,0.00,,,0.00,WUHU216HW,2013-06-14 20:26:00,
2013-06-14 16:31:00,88.2,76.3,29.91,NNW,338,2.0,6.5,68,0.00,,,0.00,WUHU216HW,2013-06-14 20:31:00,
2013-06-14 16:36:00,87.8,76.4,29.91,WSW,248,1.8,6.5,69,0.00,,,0.00,WUHU216HW,2013-06-14 20:36:00,
2013-06-14 16:41:00,87.8,76.0,29.91,South,180,1.8,5.8,68,0.00,,,0.00,WUHU216HW,2013-06-14 20:41:00,
2013-06-14 16:46:00,87.5,76.1,29.91,NNW,338,2.0,5.8,69,0.00,,,0.00,WUHU216HW,2013-06-14 20:46:00,
2013-06-14 16:51:00,87.7,76.7,29.91,WNW,293,4.7,6.9,70,0.00,,,0.00,WUHU216HW,2013-06-14 20:51:00,
2013-06-14 16:57:00,87.5,76.5,29.91,NNW,338,2.5,5.6,70,0.00,,,0.00,WUHU216HW,2013-06-14 20:57:00,
2013-06-14 17:02:00,87.3,76.4,29.90,WNW,293,0.9,5.8,70,0.00,,,0.00,WUHU216HW,2013-06-14 21:02:00,
2013-06-14 17:07:00,87.1,75.8,29.90,SSE,158,1.1,6.3,69,0.00,,,0.00,WUHU216HW,2013-06-14 21:07:00,
2013-06-14 17:12:00,87.3,75.4,29.89,NW,315,2.7,6.3,68,0.00,,,0.00,WUHU216HW,2013-06-14 21:12:00,
2013-06-14 17:17:00,87.1,74.9,29.89,WSW,248,3.4,6.3,67,0.00,,,0.00,WUHU216HW,2013-06-14 21:17:00,
2013-06-14 17:22:00,87.1,75.8,29.89,NW,315,0.7,5.4,69,0.00,,,0.00,WUHU216HW,2013-06-14 21:22:00,
2013-06-14 17:27:00,87.1,75.3,29.89,SW,225,1.6,7.2,68,0.00,,,0.00,WUHU216HW,2013-06-14 21:27:00,
2013-06-14 17:32:00,87.1,75.3,29.89,NNW,338,3.1,4.7,68,0.00,,,0.00,WUHU216HW,2013-06-14 21:32:00,
2013-06-14 17:38:00,86.9,75.2,29.89,WNW,293,1.1,4.7,68,0.00,,,0.00,WUHU216HW,2013-06-14 21:38:00,
2013-06-14 17:43:00,86.9,75.6,29.89,SE,135,3.1,6.3,69,0.00,,,0.00,WUHU216HW,2013-06-14 21:43:00,
2013-06-14 17:48:00,86.9,75.6,29.89,WSW,248,0.2,6.3,69,0.00,,,0.00,WUHU216HW,2013-06-14 21:48:00,
2013-06-14 17:53:00,87.1,75.8,29.89,West,270,0.7,3.8,69,0.00,,,0.00,WUHU216HW,2013-06-14 21:53:00,
2013-06-14 17:58:00,87.3,76.0,29.89,West,270,2.0,3.6,69,0.00,,,0.00,WUHU216HW,2013-06-14 21:58:00,
2013-06-14 18:03:00,87.3,76.0,29.89,West,270,2.0,3.6,69,0.00,,,0.00,WUHU216HW,2013-06-14 22:03:00,
2013-06-14 18:08:00,87.5,76.1,29.89,SSW,203,1.3,3.6,69,0.00,,,0.00,WUHU216HW,2013-06-14 22:08:00,
2013-06-14 18:13:00,87.5,76.1,29.89,WSW,248,0.9,3.6,69,0.00,,,0.00,WUHU216HW,2013-06-14 22:13:00,
2013-06-14 18:19:00,87.5,76.1,29.89,WSW,248,0.9,2.5,69,0.00,,,0.00,WUHU216HW,2013-06-14 22:19:00,
2013-06-14 18:24:00,87.3,76.0,29.89,WSW,248,1.8,2.5,69,0.00,,,0.00,WUHU216HW,2013-06-14 22:24:00,
2013-06-14 18:29:00,87.3,76.4,29.89,SSW,203,0.9,2.0,70,0.00,,,0.00,WUHU216HW,2013-06-14 22:29:00,
2013-06-14 18:34:00,87.1,76.2,29.89,West,270,2.5,2.5,70,0.00,,,0.00,WUHU216HW,2013-06-14 22:34:00,
2013-06-14 18:39:00,86.9,76.1,29.89,SSW,203,1.1,2.5,70,0.00,,,0.00,WUHU216HW,2013-06-14 22:39:00,
2013-06-14 18:44:00,86.8,76.3,29.89,NNW,338,1.1,1.8,71,0.00,,,0.00,WUHU216HW,2013-06-14 22:44:00,
2013-06-14 18:49:00,86.4,76.0,29.88,WSW,248,0.0,4.3,71,0.00,,,0.00,WUHU216HW,2013-06-14 22:49:00,
2013-06-14 18:54:00,86.2,75.8,29.88,NNW,338,1.1,4.3,71,0.00,,,0.00,WUHU216HW,2013-06-14 22:54:00,
2013-06-14 19:00:00,86.0,76.1,29.89,WSW,248,1.6,2.2,72,0.00,,,0.00,WUHU216HW,2013-06-14 23:00:00,
2013-06-14 19:05:00,85.9,75.9,29.88,WNW,293,2.9,2.9,72,0.00,,,0.00,WUHU216HW,2013-06-14 23:05:00,
2013-06-14 19:10:00,85.7,75.7,29.88,WSW,248,3.8,3.8,72,0.00,,,0.00,WUHU216HW,2013-06-14 23:10:00,
2013-06-14 19:15:00,85.5,75.5,29.89,SW,225,0.2,4.7,72,0.00,,,0.00,WUHU216HW,2013-06-14 23:15:00,
2013-06-14 19:20:00,85.5,75.9,29.89,NNW,338,1.8,4.7,73,0.00,,,0.00,WUHU216HW,2013-06-14 23:20:00,
2013-06-14 19:25:00,85.3,75.7,29.90,West,270,1.1,2.5,73,0.00,,,0.00,WUHU216HW,2013-06-14 23:25:00,
2013-06-14 19:30:00,85.1,75.5,29.91,WSW,248,0.0,1.8,73,0.00,,,0.00,WUHU216HW,2013-06-14 23:30:00,
2013-06-14 19:35:00,85.0,75.3,29.91,WSW,248,1.8,1.8,73,0.00,,,0.00,WUHU216HW,2013-06-14 23:35:00,
2013-06-14 19:40:00,84.8,75.2,29.91,WNW,293,2.0,2.7,73,0.00,,,0.00,WUHU216HW,2013-06-14 23:40:00,
2013-06-14 19:45:00,84.4,74.8,29.92,WNW,293,1.1,4.3,73,0.00,,,0.00,WUHU216HW,2013-06-14 23:45:00,
2013-06-14 19:51:00,84.2,74.6,29.92,WNW,293,1.8,4.3,73,0.00,,,0.00,WUHU216HW,2013-06-14 23:51:00,
2013-06-14 19:56:00,84.1,74.4,29.91,NNW,338,2.9,3.1,73,0.00,,,0.00,WUHU216HW,2013-06-14 23:56:00,
2013-06-14 20:01:00,83.9,74.3,29.91,SW,225,0.4,3.4,73,0.00,,,0.00,WUHU216HW,2013-06-15 00:01:00,
2013-06-14 20:06:00,83.7,74.1,29.92,West,270,1.1,3.4,73,0.00,,,0.00,WUHU216HW,2013-06-15 00:06:00,
2013-06-14 20:11:00,83.7,74.5,29.93,WSW,248,1.8,1.8,74,0.00,,,0.00,WUHU216HW,2013-06-15 00:11:00,
2013-06-14 20:16:00,83.7,74.5,29.93,WSW,248,0.7,1.8,74,0.00,,,0.00,WUHU216HW,2013-06-15 00:16:00,
2013-06-14 20:21:00,83.7,74.5,29.93,NW,315,0.7,1.8,74,0.00,,,0.00,WUHU216HW,2013-06-15 00:21:00,
2013-06-14 20:26:00,83.5,74.4,29.93,WSW,248,0.0,1.1,74,0.00,,,0.00,WUHU216HW,2013-06-15 00:26:00,
2013-06-14 20:31:00,83.3,74.2,29.93,West,270,1.1,1.1,74,0.00,,,0.00,WUHU216HW,2013-06-15 00:31:00,
2013-06-14 20:36:00,83.2,74.0,29.93,WSW,248,1.3,2.9,74,0.00,,,0.00,WUHU216HW,2013-06-15 00:36:00,
2013-06-14 20:42:00,83.2,74.0,29.92,WSW,248,0.0,2.9,74,0.00,,,0.00,WUHU216HW,2013-06-15 00:42:00,
2013-06-14 20:47:00,83.2,74.4,29.92,WNW,293,1.8,2.0,75,0.00,,,0.00,WUHU216HW,2013-06-15 00:47:00,
2013-06-14 20:52:00,83.0,74.3,29.92,WNW,293,2.0,2.0,75,0.00,,,0.00,WUHU216HW,2013-06-15 00:52:00,
2013-06-14 20:57:00,83.0,74.3,29.92,WSW,248,1.1,2.0,75,0.00,,,0.00,WUHU216HW,2013-06-15 00:57:00,
2013-06-14 21:02:00,82.8,74.1,29.91,WSW,248,0.7,1.3,75,0.00,,,0.00,WUHU216HW,2013-06-15 01:02:00,
2013-06-14 21:07:00,82.8,74.1,29.92,WSW,248,0.2,1.3,75,0.00,,,0.00,WUHU216HW,2013-06-15 01:07:00,
2013-06-14 21:12:00,82.8,74.4,29.92,WSW,248,0.2,0.4,76,0.00,,,0.00,WUHU216HW,2013-06-15 01:12:00,
2013-06-14 21:17:00,82.8,74.4,29.92,SW,225,0.0,1.1,76,0.00,,,0.00,WUHU216HW,2013-06-15 01:17:00,
2013-06-14 21:23:00,82.8,74.4,29.92,WSW,248,0.0,1.1,76,0.00,,,0.00,WUHU216HW,2013-06-15 01:23:00,
2013-06-14 21:28:00,82.8,74.4,29.93,SW,225,0.0,1.8,76,0.00,,,0.00,WUHU216HW,2013-06-15 01:28:00,
2013-06-14 21:33:00,82.8,74.4,29.93,NW,315,0.4,1.8,76,0.00,,,0.00,WUHU216HW,2013-06-15 01:33:00,
2013-06-14 21:38:00,82.6,74.3,29.93,WSW,248,1.6,1.8,76,0.00,,,0.00,WUHU216HW,2013-06-15 01:38:00,
2013-06-14 21:43:00,82.4,74.2,29.93,West,270,0.4,1.8,76,0.00,,,0.00,WUHU216HW,2013-06-15 01:43:00,
2013-06-14 21:48:00,82.4,74.5,29.94,West,270,0.4,1.3,77,0.00,,,0.00,WUHU216HW,2013-06-15 01:48:00,
2013-06-14 21:53:00,82.4,74.5,29.94,SW,225,0.2,1.1,77,0.00,,,0.00,WUHU216HW,2013-06-15 01:53:00,
2013-06-14 21:58:00,82.3,74.3,29.94,WSW,248,0.0,1.1,77,0.00,,,0.00,WUHU216HW,2013-06-15 01:58:00,
2013-06-14 22:03:00,82.3,74.3,29.94,WSW,248,0.0,0.7,77,0.00,,,0.00,WUHU216HW,2013-06-15 02:03:00,
2013-06-14 22:09:00,82.3,74.3,29.94,WSW,248,0.4,0.7,77,0.00,,,0.00,WUHU216HW,2013-06-15 02:09:00,
2013-06-14 22:14:00,82.3,74.8,29.94,WSW,248,0.2,0.4,78,0.00,,,0.00,WUHU216HW,2013-06-15 02:14:00,
2013-06-14 22:19:00,82.1,74.6,29.94,WSW,248,0.0,0.2,78,0.00,,,0.00,WUHU216HW,2013-06-15 02:19:00,
2013-06-14 22:24:00,82.1,74.6,29.94,WSW,248,0.0,0.2,78,0.00,,,0.00,WUHU216HW,2013-06-15 02:24:00,
2013-06-14 22:29:00,82.1,74.6,29.94,WSW,248,0.0,0.0,78,0.00,,,0.00,WUHU216HW,2013-06-15 02:29:00,
2013-06-14 22:34:00,81.9,74.8,29.94,WSW,248,0.0,0.0,79,0.00,,,0.00,WUHU216HW,2013-06-15 02:34:00,
2013-06-14 22:39:00,81.9,74.8,29.94,WSW,248,0.0,0.0,79,0.00,,,0.00,WUHU216HW,2013-06-15 02:39:00,
2013-06-14 22:44:00,81.7,74.6,29.94,WSW,248,0.0,0.0,79,0.00,,,0.00,WUHU216HW,2013-06-15 02:44:00,
2013-06-14 22:50:00,81.7,74.6,29.94,WSW,248,0.0,0.0,79,0.00,,,0.00,WUHU216HW,2013-06-15 02:50:00,
2013-06-14 22:55:00,81.7,74.6,29.94,WNW,293,0.4,0.4,79,0.00,,,0.00,WUHU216HW,2013-06-15 02:55:00,
2013-06-14 23:00:00,81.4,73.9,29.94,NW,315,0.4,0.7,78,0.00,,,0.00,WUHU216HW,2013-06-15 03:00:00,
2013-06-14 23:05:00,81.2,73.7,29.94,NW,315,0.4,1.1,78,0.00,,,0.00,WUHU216HW,2013-06-15 03:05:00,
2013-06-14 23:10:00,81.0,73.5,29.94,NNW,338,0.4,1.1,78,0.00,,,0.00,WUHU216HW,2013-06-15 03:10:00,
2013-06-14 23:15:00,80.8,73.8,29.94,NW,315,0.4,1.6,79,0.00,,,0.00,WUHU216HW,2013-06-15 03:15:00,
2013-06-14 23:20:00,80.6,73.6,29.94,NNW,338,0.2,1.6,79,0.00,,,0.00,WUHU216HW,2013-06-15 03:20:00,
2013-06-14 23:26:00,80.6,73.6,29.94,NNW,338,0.0,1.1,79,0.00,,,0.00,WUHU216HW,2013-06-15 03:26:00,
2013-06-14 23:31:00,80.8,73.8,29.94,NNW,338,0.0,0.4,79,0.00,,,0.00,WUHU216HW,2013-06-15 03:31:00,
2013-06-14 23:36:00,80.8,73.8,29.94,NNW,338,0.0,0.4,79,0.00,,,0.00,WUHU216HW,2013-06-15 03:36:00,
2013-06-14 23:41:00,80.6,73.6,29.94,NNW,338,0.2,0.2,79,0.00,,,0.00,WUHU216HW,2013-06-15 03:41:00,
2013-06-14 23:46:00,80.8,73.8,29.94,NNW,338,0.0,0.2,79,0.00,,,0.00,WUHU216HW,2013-06-15 03:46:00,
2013-06-14 23:51:00,80.6,73.6,29.95,NNW,338,0.0,0.0,79,0.00,,,0.00,WUHU216HW,2013-06-15 03:51:00,
2013-06-14 23:56:00,80.6,73.6,29.94,North,0,0.4,0.4,79,0.00,,,0.00,WUHU216HW,2013-06-15 03:56:00,